Regional Weather Roundup
Issued by NWS

Home | Current Version | Previous Version | Graphics & Text | Print | Product List | Glossary On
Versions: 1 2 3 4 5 6 7 8 9 10 11 12 13 14 15 16 17 18 19 20 21 22 23 24 25 26 27 28 29 30 31 32 33 34 35 36 37 38 39 40 41 42 43 44 45 46 47 48 49 50
000
ASUS43 KIND 301209
RWRIN

WEATHER ROUNDUP FOR INDIANA
NATIONAL WEATHER SERVICE INDIANAPOLIS IN
800 AM EDT SUN APR 30 2017

NOTE: "FAIR" INDICATES FEW OR NO CLOUDS BELOW 12,000 FEET WITH NO
SIGNIFICANT WEATHER AND/OR OBSTRUCTIONS TO VISIBILITY.

* - STATION DOES NOT REPORT WEATHER SUCH AS PRECIPITATION OR FOG.

+ - STATION NOT QUALITY CONTROLLED BY THE NATIONAL WEATHER SERVICE.
    USE DATA WITH CAUTION...ESPECIALLY DEWPOINT AND RELATIVE
    HUMIDITY OBSERVATIONS.

INZ001>003-010>013-019-020-301300-
NORTHWEST INDIANA

CITY           SKY/WX    TMP DP  RH WIND       PRES   REMARKS
GARY /AIRPORT/ LGT RAIN  48  46  93 N10       29.92R
KNOX *+        CLOUDY    45  36  70 E13       29.89S
LA PORTE +     RAIN      45  44  95 E10       29.91S
6HR MIN TEMP:  44; 6HR MAX TEMP:  45; 6HR PCP:  0.02;

MICHIGAN CITY+ MIX PCPN  45  45 100 E3        29.91S
MONTICELLO +   RAIN      48  47  95 E8        29.85F
6HR MIN TEMP:  48; 6HR MAX TEMP:  52; 6HR PCP:  0.13;

RENSSELAER +   DRIZZLE   48  45  87 E12       29.85F
VALPARAISO     LGT RAIN  48  47  96 E7        29.90S FOG
6HR MIN TEMP:  46; 6HR MAX TEMP:  48; 6HR PCP:  0.07;


$$

LMZ046-743>745-301300-
SOUTHERN LAKE MICHIGAN

STATION/POSITION TIME  TEMP    WIND        PRES    WAVE
                       AIR SEA DIR/SP/G            HT
                 (UTC) (F)     (DEG/KT/KT) (MB)    (FT)
BURNS HARBOR     1201   47        CALM     1013.2
MICHIGAN CITY    1140   46      70/  2/  3   N/A
5NW MICH CITY    1200   46 48                N/A     3

$$

INZ004-005-014>016-021>024-301300-
NORTH CENTRAL INDIANA

CITY           SKY/WX    TMP DP  RH WIND       PRES   REMARKS
ELKHART        CLOUDY    45  43  93 E9        29.92  FOG
GOSHEN         LGT RAIN  46  42  86 E14       29.93F FOG
6HR MIN TEMP:  44; 6HR MAX TEMP:  46; 6HR PCP:  0.01;

LOGANSPORT +   LGT RAIN  46  45  93 E13       29.88F
PERU/GRISSOM   CLOUDY    48  48 100 E12       29.86F
6HR MIN TEMP:  47; 6HR MAX TEMP:  50; 6HR PCP:  0.07;

ROCHESTER +    LGT RAIN  48  46  93 E10       29.89F
SOUTH BEND     LGT RAIN  44  44 100 E14G21    29.91F FOG
6HR MIN TEMP:  43; 6HR MAX TEMP:  44; 6HR PCP:  0.09;

WARSAW +       LGT RAIN  45  43  93 E8        29.92F

$$

INZ006>009-017-018-025>027-301300-
NORTHEAST INDIANA

CITY           SKY/WX    TMP DP  RH WIND       PRES   REMARKS
ANGOLA *+      CLOUDY    45  36  70 E8        29.96F
AUBURN +       CLOUDY    46  43  87 E9        29.95F FOG
FORT WAYNE     CLOUDY    47  44  90 NE12      29.94F FOG
6HR MIN TEMP:  45; 6HR MAX TEMP:  47; 6HR PCP: TRACE;

HUNTINGTON +   CLOUDY   N/A N/A N/A E9        29.92S
KENDALLVILLE + CLOUDY    45  44  97 E10       29.94F FOG

$$

INZ028-029-035-036-043>045-051>053-301300-
WEST CENTRAL INDIANA

CITY           SKY/WX    TMP DP  RH WIND       PRES   REMARKS
CRAWFORDSVL +  CLOUDY    56  56 100 NE8       29.81F FOG
6HR MIN TEMP:  56; 6HR MAX TEMP:  59; 6HR PCP:  0.34;

GREENCASTLE +  CLOUDY    59  59 100 SE7       29.82F FOG
LAFAYETTE      HVY RAIN  51  51 100 E12       29.82F FOG
6HR MIN TEMP:  51; 6HR MAX TEMP:  58; 6HR PCP:  0.32;

TERRE HAUTE    LGT RAIN  64  62  93 SE9       29.76F
6HR MIN TEMP:  63; 6HR MAX TEMP:  64; 6HR PCP:  0.28;


$$

INZ030>032-037>040-046>048-054>057-064-065-301300-
CENTRAL INDIANA

CITY           SKY/WX    TMP DP  RH WIND       PRES   REMARKS
CP ATTERBURY + CLOUDY    61  59  94 SE6       29.86F FOG
COLUMBUS       PTSUNNY   66  64  94 SE9       29.86R
FRANKFORT +    LGT RAIN  54  53  95 E10       29.86F
6HR MIN TEMP:  54; 6HR MAX TEMP:  57; 6HR PCP:  0.07;

GREENWOOD *+   CLOUDY    61  59  95 SE7       29.85F
6HR MIN TEMP:  57; 6HR MAX TEMP:  61;

INDIANAPOLIS   CLOUDY    58  57  97 E9        29.83F
6HR MIN TEMP:  57; 6HR MAX TEMP:  58; 6HR PCP: TRACE;

-EAGLE CREEK   CLOUDY    58  56  93 E7        29.83F
6HR MIN TEMP:  57; 6HR MAX TEMP:  58; 6HR PCP: TRACE;

KOKOMO +       LGT RAIN  48  47  96 E13       29.88F
6HR MIN TEMP:  48; 6HR MAX TEMP:  50; 6HR PCP:  0.02;

MARION +       CLOUDY    48  48 100 E8        29.89F
MT COMFORT *+  CLOUDY    59  57  94 SE6       29.86F
SHELBYVILLE    CLOUDY    68  61  78 SE13      29.85S
6HR MIN TEMP:  58; 6HR MAX TEMP:  68;

ZIONSVILLE +   CLOUDY    55  54  97 E6        29.86F FOG
6HR MIN TEMP:  53; 6HR MAX TEMP:  55;


$$

INZ033-034-041-042-049-050-058-059-301300-
EAST CENTRAL INDIANA

CITY           SKY/WX    TMP DP  RH WIND       PRES   REMARKS
MUNCIE         CLOUDY    56  53  90 E5        29.89S
6HR MIN TEMP:  49; 6HR MAX TEMP:  56;

RICHMOND +     CLOUDY    55  55 100 SE8       29.93R FOG

$$

INZ060-061-067>069-081>083-085>088-301300-
SOUTHWEST INDIANA

CITY           SKY/WX    TMP DP  RH WIND       PRES   REMARKS
EVANSVILLE     CLOUDY    68  64  87 S9        29.83F
WASHINGTON +   DRIZZLE   67  64  87 S15G21    29.80F
6HR MIN TEMP:  63; 6HR MAX TEMP:  68; 6HR PCP:  0.02;


$$

INZ062-063-066-070>080-084-089>092-301300-
SOUTH CENTRAL AND SOUTHEAST INDIANA

CITY           SKY/WX    TMP DP  RH WIND       PRES   REMARKS
BLOOMINGTON    RAIN      65  62  90 SE12      29.83S FOG
6HR MIN TEMP:  63; 6HR MAX TEMP:  65; 6HR PCP:  0.02;

MADISON *+     CLOUDY    70  63  78 SE7       29.93R
SEYMOUR +      CLOUDY    72  64  78 SE8       29.87R

$$





USA.gov is the U.S. government's official web portal to all federal, state and local government web resources and services.